WetterOnline ( https://www.wetteronline.de )

Wetter aktuell Wismar

Aktuelles Wetter: Pelzerhaken/Neustadt i.H. (2m)

6-stündlich | Neueste Meldungen
Ortszeit Temperatur Wetter
Di, 09.08. 8:00 16.2° C wolkig
Di, 09.08. 2:00 13.1° C wolkenlos
Mo, 08.08. 20:00 19.6° C bedeckt
Mo, 08.08. 14:00 19.9° C bedeckt
Mo, 08.08. 8:00 15.3° C fast wolkenlos
Mo, 08.08. 2:00 11.2° C leicht bewölkt
So, 07.08. 20:00 19.5° C wolkig
So, 07.08. 14:00 20.1° C bewölkt
Ortszeit Temperatur Wetter
Di, 09.08. 13:00 20.8° C wolkig
Di, 09.08. 12:50 20.8° C wolkig
Di, 09.08. 12:40 21.6° C bewölkt
Di, 09.08. 12:30 20.9° C wolkig
Di, 09.08. 12:20 20.9° C wolkig
Di, 09.08. 12:10 20.9° C bewölkt
Di, 09.08. 12:00 19.9° C bewölkt
Di, 09.08. 11:30 19.6° C bewölkt
Di, 09.08. 11:00 20.7° C bewölkt
Di, 09.08. 10:30 21.0° C leicht bewölkt
Di, 09.08. 10:00 20.8° C wolkig
Ortszeit Relative Feuchte Sichtweite
Di, 09.08. 8:00 86% 35 km
Di, 09.08. 2:00 97% 23 km
Mo, 08.08. 20:00 70% 45 km
Mo, 08.08. 14:00 61% 40 km
Mo, 08.08. 8:00 78% 40 km
Mo, 08.08. 2:00 95% 12 km
So, 07.08. 20:00 62% 45 km
So, 07.08. 14:00 49% 45 km
Ortszeit Relative Feuchte Sichtweite
Di, 09.08. 13:00 68% 50 km
Di, 09.08. 12:50 68% -
Di, 09.08. 12:40 68% -
Di, 09.08. 12:30 70% 60 km
Di, 09.08. 12:20 70% -
Di, 09.08. 12:10 73% -
Di, 09.08. 12:00 74% 40 km
Di, 09.08. 11:30 76% 35 km
Di, 09.08. 11:00 69% 55 km
Di, 09.08. 10:30 63% 45 km
Di, 09.08. 10:00 66% 40 km
Ortszeit Niederschlagsmenge Niederschlagsart
Di, 09.08. 8:00 0.0 l/m2 in 12 Std. -
Di, 09.08. 2:00 0.0 l/m2 in 6 Std. -
Mo, 08.08. 20:00 0.0 l/m2 in 12 Std. -
Mo, 08.08. 14:00 0.0 l/m2 in 6 Std. -
Mo, 08.08. 8:00 0.0 l/m2 in 12 Std. -
Mo, 08.08. 2:00 0.0 l/m2 in 6 Std. -
So, 07.08. 20:00 0.0 l/m2 in 12 Std. -
So, 07.08. 14:00 0.0 l/m2 in 6 Std. -
Ortszeit Niederschlagsmenge Niederschlagsart
Di, 09.08. 13:00 0.0 l/m2 in 1 Std. -
Di, 09.08. 12:50 keine Meldung -
Di, 09.08. 12:40 keine Meldung -
Di, 09.08. 12:30 0.0 l/m2 in 1 Std. -
Di, 09.08. 12:20 keine Meldung -
Di, 09.08. 12:10 keine Meldung -
Di, 09.08. 12:00 0.1 l/m2 in 1 Std. Regen
Di, 09.08. 11:30 0.1 l/m2 in 1 Std. Schneeregen
Di, 09.08. 11:00 0.0 l/m2 in 1 Std. -
Di, 09.08. 10:30 0.0 l/m2 in 1 Std. -
Di, 09.08. 10:00 0.0 l/m2 in 1 Std. -
Ortszeit Stärke Spitze Richtung
km/h Bft. km/h Grad Sektor
Di, 09.08. 8:00 7 2 14 340° N
Di, 09.08. 2:00 7 2 14 350° N
Mo, 08.08. 20:00 7 2 22 120° SO
Mo, 08.08. 14:00 14 3 22 10° N
Mo, 08.08. 8:00 9 2 13 330° NW
Mo, 08.08. 2:00 6 1 19 330° NW
So, 07.08. 20:00 6 1 24 20° N
So, 07.08. 14:00 7 2 22 240° SW
Ortszeit Stärke Spitze Richtung
km/h Bft. km/h Grad Sektor
Di, 09.08. 13:00 7 2 14 130° SO
Di, 09.08. 12:50 7 2 - 130° SO
Di, 09.08. 12:40 7 2 - 160° S
Di, 09.08. 12:30 9 2 13 160° S
Di, 09.08. 12:20 9 2 - 160° S
Di, 09.08. 12:10 7 2 - 170° S
Di, 09.08. 12:00 4 1 11 210° SW
Di, 09.08. 11:30 7 2 11 190° S
Di, 09.08. 11:00 7 2 14 170° S
Di, 09.08. 10:30 7 2 13 220° SW
Di, 09.08. 10:00 6 1 11 290° W
Ortszeit Untergrenze Bedeckung Gattung
total tief tief mittel hoch
Di, 09.08. 8:00 10500 m 7/8 0/8 - - -
Di, 09.08. 2:00 - 0/8 0/8 - - -
Mo, 08.08. 20:00 2100 m 8/8 8/8 - - -
Mo, 08.08. 14:00 1800 m 8/8 8/8 - - -
Mo, 08.08. 8:00 3300 m 1/8 1/8 - - -
Mo, 08.08. 2:00 3900 m 3/8 3/8 - - -
So, 07.08. 20:00 1470 m 6/8 6/8 - - -
So, 07.08. 14:00 1500 m 7/8 7/8 - - -
Ortszeit Bedeckungsgrad in Achtel und Wolkenuntergrenze
Di, 09.08. 13:00 4(930m) 7(8700m) 7(9000m)
Di, 09.08. 12:50 4(930m) 7(8700m) 7(9000m)
Di, 09.08. 12:40 7
Di, 09.08. 12:30 5(1500m) 6(9000m) 6(10500m)
Di, 09.08. 12:20 5(1500m) 6(9000m) 6(10500m)
Di, 09.08. 12:10 7
Di, 09.08. 12:00 7(1500m)
Di, 09.08. 11:30 4(810m) 6(990m) 7(1260m)
Di, 09.08. 11:00 5(810m) 7(1140m) 7(1800m)
Di, 09.08. 10:30 2(750m) 3(10500m)
Di, 09.08. 10:00 7(9000m) 7(10500m)
Ortszeit Luftdruck NN (hPa) Tendenz (hPa in 3 Std.)
Di, 09.08. 8:00 1029 + 0,8
Di, 09.08. 2:00 1028 + 0,5
Mo, 08.08. 20:00 1026 + 0,1
Mo, 08.08. 14:00 1026 + 0,2
Mo, 08.08. 8:00 1025 + 0,6
Mo, 08.08. 2:00 1025 + 0,4
So, 07.08. 20:00 1024 - 0,5
So, 07.08. 14:00 1025 - 1,3
Ortszeit Luftdruck NN (hPa) Tendenz (hPa in 3 Std.)
Di, 09.08. 13:00 1030 + 0,4
Di, 09.08. 12:50 1030 keine Meldung
Di, 09.08. 12:40 1030 keine Meldung
Di, 09.08. 12:30 1030 + 0,4
Di, 09.08. 12:20 1030 keine Meldung
Di, 09.08. 12:10 1030 keine Meldung
Di, 09.08. 12:00 1030 + 0,6
Di, 09.08. 11:30 1030 + 0,8
Di, 09.08. 11:00 1029 + 0,7
Di, 09.08. 10:30 1029 + 0,8
Di, 09.08. 10:00 1029 + 1,0
Ortszeit Schneehöhe (cm)
Di, 09.08. 8:00 0
Di, 09.08. 2:00 0
Mo, 08.08. 20:00 0
Mo, 08.08. 14:00 0
Mo, 08.08. 8:00 0
Mo, 08.08. 2:00 0
So, 07.08. 20:00 0
So, 07.08. 14:00 0
Ortszeit Schneehöhe (cm)
Di, 09.08. 13:00 0
Di, 09.08. 12:50 0
Di, 09.08. 12:40 0
Di, 09.08. 12:30 0
Di, 09.08. 12:20 0
Di, 09.08. 12:10 0
Di, 09.08. 12:00 0
Di, 09.08. 11:30 0
Di, 09.08. 11:00 0
Di, 09.08. 10:30 0
Di, 09.08. 10:00 0
Link zu dieser Seite / Seite empfehlen

Das Wetter in ...